sat.trackr.live / text

‹ back to catalog

ONEWEB-0651

NORAD 56080 · 2023-043AL

PAYLOAD ACTIVE UNKNOWN

§ Identity

Operator
Country
UK
Launch date
2023-03-26
Launch site
SRILR
Launch vehicle
Mass (kg)
RCS (m²)

Purposes: comms

External: N2YO · Heavens-Above · Gunter

§ Orbital elements

Epoch: 2026-09-20T04:36:32.282784Z

Period
109.46 min
Inclination
87.8983°
Eccentricity
0.0002114
Mean motion
13.15548803 rev/d
Perigee alt
1,200.2 km
Apogee alt
1,203.4 km
Semi-major
7,579.9 km
B*
-2.3631e-4
RAAN
240.2738°
Arg perigee
90.7175°
Mean anomaly
269.4198°
Rev number
17,011

§ Raw data

ONEWEB-06511 56080U 23043AL  26263.19204031 -.00000076  00000+0 -23631-3 0  99922 56080  87.8983 240.2738 0002114  90.7175 269.4198 13.15548803170114

JSON: /api/v1/satellites/56080 · /tle

For live sub-satellite position, see the globe view (requires WebGL).

§ Visibility from observer

Set your observer location to see the next 7 days of passes ≥ 10°. The values pass through the URL so the page stays shareable.

No JS? Fill the form by hand. The geolocation button needs JavaScript.